| time (UTC) | temp C | wind direction | speed KPH | gust KPH | rain 1hr cm | rain 24hr cm | rain mn cm | humidity % | barometer mb |
| 20260831133050 | 27 | 73 | 12.9 | 29.0 | 0.00 | 0.00 | 0.00 | 71 | 1016.2 |
| 20260831132025 | 27 | 75 | 11.3 | 27.4 | 0.00 | 0.00 | 0.00 | 72 | 1016.3 |
| 20260831131020 | 28 | 66 | 12.9 | 35.4 | 0.00 | 0.00 | 0.00 | 70 | 1016.3 |
| 20260831130035 | 28 | 67 | 12.9 | 33.8 | 0.00 | 0.00 | 0.00 | 70 | 1016.2 |
| 20260831125031 | 27 | 74 | 12.9 | 30.6 | 0.00 | 0.00 | 0.00 | 70 | 1016.5 |
| 20260831124026 | 28 | 64 | 12.9 | 33.8 | 0.00 | 0.00 | 0.00 | 67 | 1016.6 |
| 20260831123023 | 28 | 71 | 11.3 | 30.6 | 0.00 | 0.00 | 0.00 | 67 | 1016.6 |
| 20260831122037 | 28 | 88 | 11.3 | 30.6 | 0.00 | 0.00 | 0.00 | 66 | 1016.6 |
| 20260831121032 | 28 | 73 | 8.0 | 20.9 | 0.00 | 0.00 | 0.00 | 69 | 1016.7 |
| 20260831120028 | 28 | 70 | 9.7 | 22.5 | 0.00 | 0.00 | 0.00 | 69 | 1016.8 |
| 20260831115043 | 28 | 83 | 11.3 | 24.1 | 0.00 | 0.00 | 0.00 | 70 | 1016.9 |
| 20260831114018 | 28 | 87 | 12.9 | 30.6 | 0.00 | 0.00 | 0.00 | 69 | 1017.0 |
| 20260831113034 | 28 | 94 | 14.5 | 29.0 | 0.00 | 0.00 | 0.00 | 67 | 1016.8 |
| 20260831112029 | 27 | 81 | 11.3 | 30.6 | 0.00 | 0.00 | 0.00 | 70 | 1017.0 |
| 20260831111024 | 27 | 83 | 11.3 | 27.4 | 0.00 | 0.00 | 0.00 | 73 | 1017.0 |
| 20260831110040 | 27 | 87 | 17.7 | 35.4 | 0.00 | 0.00 | 0.00 | 74 | 1017.1 |
| 20260831105035 | 27 | 94 | 12.9 | 29.0 | 0.00 | 0.00 | 0.00 | 72 | 1017.1 |
| 20260831104050 | 27 | 79 | 11.3 | 24.1 | 0.00 | 0.00 | 0.00 | 72 | 1017.2 |
| 20260831103045 | 27 | 85 | 16.1 | 27.4 | 0.00 | 0.00 | 0.00 | 72 | 1017.2 |
| 20260831102020 | 28 | 88 | 14.5 | 29.0 | 0.00 | 0.00 | 0.00 | 71 | 1017.1 |
| 20260831101016 | 28 | 82 | 11.3 | 30.6 | 0.00 | 0.00 | 0.00 | 68 | 1017.0 |
| 20260831100031 | 28 | 112 | 11.3 | 22.5 | 0.00 | 0.00 | 0.00 | 68 | 1016.9 |
| 20260831095026 | 27 | 101 | 11.3 | 25.7 | 0.00 | 0.00 | 0.00 | 70 | 1016.9 |
| 20260831094021 | 27 | 85 | 9.7 | 24.1 | 0.00 | 0.00 | 0.00 | 69 | 1017.0 |
| 20260831093017 | 27 | 80 | 8.0 | 20.9 | 0.00 | 0.00 | 0.00 | 70 | 1016.9 |
| 20260831092033 | 27 | 71 | 6.4 | 14.5 | 0.00 | 0.00 | 0.00 | 70 | 1016.8 |
| 20260831091028 | 27 | 73 | 8.0 | 22.5 | 0.00 | 0.00 | 0.00 | 69 | 1016.6 |
| 20260831090023 | 27 | 59 | 8.0 | 14.5 | 0.00 | 0.00 | 0.00 | 70 | 1016.5 |
| 20260831085018 | 26 | 60 | 6.4 | 14.5 | 0.00 | 0.00 | 0.00 | 71 | 1016.5 |
| 20260831084034 | 27 | 64 | 1.6 | 9.7 | 0.00 | 0.00 | 0.00 | 68 | 1016.5 |
| 20260831083029 | 26 | 80 | 3.2 | 11.3 | 0.00 | 0.00 | 0.00 | 71 | 1016.5 |
| 20260831082024 | 27 | 98 | 3.2 | 6.4 | 0.00 | 0.00 | 0.00 | 69 | 1016.4 |
| 20260831081019 | 26 | 87 | 1.6 | 6.4 | 0.00 | 0.00 | 0.00 | 71 | 1016.4 |
| 20260831080034 | 26 | 45 | 1.6 | 6.4 | 0.00 | 0.00 | 0.00 | 71 | 1016.2 |
| 20260831075030 | 26 | 10 | 0.0 | 1.6 | 0.00 | 0.00 | 0.00 | 71 | 1016.2 |
| 20260831074026 | 26 | 234 | 0.0 | 3.2 | 0.00 | 0.00 | 0.00 | 70 | 1016.3 |
| 20260831073021 | 25 | 264 | 1.6 | 3.2 | 0.00 | 0.00 | 0.00 | 70 | 1016.2 |
| 20260831072015 | 25 | 281 | 1.6 | 4.8 | 0.00 | 0.00 | 0.00 | 72 | 1016.1 |
| 20260831071031 | 24 | 279 | 1.6 | 3.2 | 0.00 | 0.00 | 0.00 | 72 | 1015.9 |
| 20260831070026 | 24 | 262 | 1.6 | 3.2 | 0.00 | 0.00 | 0.00 | 69 | 1015.8 |
| 20260831065021 | 23 | 339 | 0.0 | 1.6 | 0.00 | 0.00 | 0.00 | 69 | 1015.7 |
| 20260831064016 | 23 | 313 | 0.0 | 1.6 | 0.00 | 0.00 | 0.00 | 69 | 1015.7 |
| 20260831063032 | 23 | 320 | 1.6 | 3.2 | 0.00 | 0.00 | 0.00 | 68 | 1015.6 |
| 20260831062027 | 22 | 324 | 1.6 | 3.2 | 0.00 | 0.00 | 0.00 | 67 | 1015.4 |
| 20260831061043 | 22 | 0.0 | 0.0 | 0.00 | 0.00 | 0.00 | 71 | 1015.4 | |
| 20260831060018 | 21 | 0.0 | 0.0 | 0.00 | 0.00 | 0.00 | 72 | 1015.2 | |
| 20260831055033 | 21 | 0.0 | 0.0 | 0.00 | 0.00 | 0.00 | 73 | 1015.0 | |
| 20260831054029 | 22 | 0.0 | 0.0 | 0.00 | 0.00 | 0.00 | 71 | 1015.0 | |
| 20260831053024 | 22 | 0.0 | 0.0 | 0.00 | 0.00 | 0.00 | 71 | 1015.1 | |
| 20260831052020 | 22 | 313 | 0.0 | 1.6 | 0.00 | 0.00 | 0.00 | 69 | 1014.8 |
| 20260831051035 | 22 | 291 | 3.2 | 4.8 | 0.00 | 0.00 | 0.00 | 69 | 1014.6 |
| 20260831050050 | 21 | 311 | 1.6 | 3.2 | 0.00 | 0.00 | 0.00 | 71 | 1014.7 |
| 20260831045025 | 21 | 0.0 | 0.0 | 0.00 | 0.00 | 0.00 | 74 | 1014.7 | |
| 20260831044020 | 21 | 318 | 0.0 | 3.2 | 0.00 | 0.00 | 0.00 | 74 | 1014.7 |
| 20260831043015 | 21 | 322 | 3.2 | 4.8 | 0.00 | 0.00 | 0.00 | 75 | 1014.6 |
| 20260831042031 | 21 | 337 | 1.6 | 3.2 | 0.00 | 0.00 | 0.00 | 77 | 1014.5 |
| 20260831041026 | 21 | 338 | 1.6 | 4.8 | 0.00 | 0.00 | 0.00 | 79 | 1014.5 |
| 20260831040021 | 21 | 322 | 1.6 | 4.8 | 0.00 | 0.00 | 0.00 | 80 | 1014.5 |
| 20260831035036 | 21 | 332 | 1.6 | 3.2 | 0.00 | 0.00 | 0.00 | 81 | 1014.6 |
| 20260831034032 | 22 | 0.0 | 0.0 | 0.00 | 0.00 | 0.00 | 80 | 1014.5 | |
| 20260831033027 | 22 | 0.0 | 0.0 | 0.00 | 0.00 | 0.00 | 79 | 1014.6 | |
| 20260831032022 | 22 | 306 | 0.0 | 1.6 | 0.00 | 0.00 | 0.00 | 79 | 1014.5 |
| 20260831031018 | 22 | 289 | 3.2 | 6.4 | 0.00 | 0.00 | 0.00 | 79 | 1014.5 |
| 20260831030053 | 22 | 281 | 1.6 | 4.8 | 0.00 | 0.00 | 0.00 | 80 | 1014.6 |
| 20260831025029 | 22 | 273 | 3.2 | 6.4 | 0.00 | 0.00 | 0.00 | 80 | 1014.5 |
| 20260831024024 | 22 | 281 | 3.2 | 6.4 | 0.00 | 0.00 | 0.00 | 79 | 1014.5 |
| 20260831023019 | 22 | 296 | 3.2 | 6.4 | 0.00 | 0.00 | 0.00 | 79 | 1014.6 |
| 20260831022035 | 22 | 310 | 4.8 | 11.3 | 0.00 | 0.00 | 0.00 | 80 | 1014.5 |
| 20260831021030 | 22 | 297 | 4.8 | 9.7 | 0.00 | 0.00 | 0.00 | 81 | 1014.5 |
| 20260831020026 | 22 | 304 | 3.2 | 6.4 | 0.00 | 0.00 | 0.00 | 82 | 1014.5 |
| 20260831015021 | 22 | 325 | 1.6 | 4.8 | 0.00 | 0.00 | 0.00 | 82 | 1014.5 |
| 20260831014015 | 22 | 333 | 3.2 | 9.7 | 0.00 | 0.00 | 0.00 | 82 | 1014.3 |
| 20260831013112 | 22 | 339 | 1.6 | 3.2 | 0.00 | 0.00 | 0.00 | 82 | 1014.4 |
| 20260831012047 | 22 | 338 | 1.6 | 3.2 | 0.00 | 0.00 | 0.00 | 82 | 1014.5 |
| 20260831011042 | 22 | 351 | 1.6 | 3.2 | 0.00 | 0.00 | 0.00 | 81 | 1014.6 |
| 20260831010016 | 23 | 344 | 0.0 | 3.2 | 0.00 | 0.00 | 0.00 | 80 | 1014.7 |
| 20260831005032 | 23 | 343 | 1.6 | 3.2 | 0.00 | 0.00 | 0.00 | 79 | 1014.8 |
| 20260831004027 | 23 | 331 | 3.2 | 4.8 | 0.00 | 0.00 | 0.00 | 78 | 1014.9 |
| 20260831003023 | 23 | 306 | 4.8 | 6.4 | 0.00 | 0.00 | 0.00 | 78 | 1014.7 |
| 20260831002018 | 23 | 337 | 3.2 | 4.8 | 0.00 | 0.00 | 0.00 | 78 | 1014.8 |
| 20260831001033 | 23 | 342 | 4.8 | 6.4 | 0.00 | 0.00 | 0.00 | 78 | 1014.9 |
| 20260831000049 | 23 | 354 | 3.2 | 6.4 | 0.00 | 0.00 | 0.00 | 79 | 1014.8 |
| 20260830235024 | 23 | 351 | 4.8 | 9.7 | 0.00 | 0.00 | 0.00 | 79 | 1014.8 |
| 20260830234019 | 23 | 347 | 4.8 | 9.7 | 0.00 | 0.00 | 0.00 | 79 | 1014.8 |
| 20260830233035 | 23 | 355 | 4.8 | 6.4 | 0.00 | 0.00 | 0.00 | 80 | 1014.9 |
| 20260830232031 | 23 | 12 | 4.8 | 9.7 | 0.00 | 0.00 | 0.00 | 80 | 1014.9 |
| 20260830231046 | 23 | 19 | 6.4 | 11.3 | 0.00 | 0.00 | 0.00 | 81 | 1014.9 |
| 20260830230021 | 23 | 24 | 4.8 | 9.7 | 0.00 | 0.00 | 0.00 | 82 | 1014.9 |
| 20260830225016 | 24 | 28 | 3.2 | 9.7 | 0.00 | 0.00 | 0.00 | 83 | 1014.8 |
| 20260830224032 | 24 | 46 | 4.8 | 12.9 | 0.00 | 0.00 | 0.00 | 83 | 1014.8 |
| 20260830223027 | 24 | 45 | 3.2 | 9.7 | 0.00 | 0.00 | 0.00 | 84 | 1014.8 |
| 20260830222022 | 24 | 52 | 4.8 | 11.3 | 0.00 | 0.00 | 0.00 | 84 | 1014.7 |
| 20260830221017 | 24 | 49 | 4.8 | 14.5 | 0.00 | 0.00 | 0.00 | 84 | 1014.8 |
| 20260830220032 | 24 | 39 | 3.2 | 11.3 | 0.00 | 0.00 | 0.00 | 83 | 1014.8 |
| 20260830215028 | 24 | 52 | 4.8 | 11.3 | 0.00 | 0.00 | 0.00 | 83 | 1014.8 |
| 20260830214023 | 24 | 51 | 4.8 | 11.3 | 0.00 | 0.00 | 0.00 | 83 | 1014.7 |
| 20260830213038 | 24 | 56 | 4.8 | 12.9 | 0.00 | 0.00 | 0.00 | 83 | 1014.5 |
| 20260830212033 | 25 | 59 | 4.8 | 11.3 | 0.00 | 0.00 | 0.00 | 82 | 1014.5 |
| 20260830211028 | 25 | 52 | 6.4 | 17.7 | 0.00 | 0.00 | 0.00 | 82 | 1014.5 |
| 20260830210104 | 25 | 47 | 6.4 | 16.1 | 0.00 | 0.00 | 0.00 | 82 | 1014.4 |
| 20260830205019 | 25 | 44 | 6.4 | 16.1 | 0.00 | 0.00 | 0.00 | 82 | 1014.3 |
| 20260830204034 | 25 | 53 | 6.4 | 17.7 | 0.00 | 0.00 | 0.00 | 81 | 1014.3 |
| 20260830203029 | 25 | 60 | 4.8 | 14.5 | 0.00 | 0.00 | 0.00 | 81 | 1014.2 |
| 20260830202024 | 25 | 62 | 3.2 | 11.3 | 0.00 | 0.00 | 0.00 | 81 | 1014.1 |
| 20260830201020 | 25 | 55 | 6.4 | 14.5 | 0.00 | 0.00 | 0.00 | 82 | 1014.0 |
| 20260830200015 | 25 | 56 | 3.2 | 12.9 | 0.00 | 0.00 | 0.00 | 82 | 1014.0 |
| 20260830195030 | 25 | 46 | 6.4 | 12.9 | 0.00 | 0.00 | 0.00 | 83 | 1013.9 |
| 20260830194026 | 25 | 55 | 1.6 | 9.7 | 0.00 | 0.00 | 0.00 | 83 | 1013.6 |
| 20260830193021 | 25 | 61 | 4.8 | 16.1 | 0.00 | 0.00 | 0.00 | 82 | 1013.5 |
| 20260830192017 | 25 | 57 | 3.2 | 11.3 | 0.00 | 0.00 | 0.00 | 80 | 1013.3 |
| 20260830191052 | 25 | 64 | 1.6 | 6.4 | 0.00 | 0.00 | 0.00 | 80 | 1013.3 |
| 20260830190027 | 25 | 67 | 1.6 | 9.7 | 0.00 | 0.00 | 0.00 | 80 | 1013.2 |
| 20260830185022 | 25 | 68 | 3.2 | 9.7 | 0.00 | 0.00 | 0.00 | 80 | 1013.2 |
| 20260830184018 | 25 | 62 | 1.6 | 9.7 | 0.00 | 0.00 | 0.00 | 80 | 1013.0 |
| 20260830183033 | 26 | 67 | 3.2 | 11.3 | 0.00 | 0.00 | 0.00 | 78 | 1013.0 |
| 20260830182029 | 26 | 74 | 3.2 | 9.7 | 0.00 | 0.00 | 0.00 | 78 | 1012.9 |
| 20260830181024 | 26 | 82 | 1.6 | 6.4 | 0.00 | 0.00 | 0.00 | 77 | 1013.0 |
| 20260830180019 | 26 | 70 | 3.2 | 11.3 | 0.00 | 0.00 | 0.00 | 76 | 1012.9 |
| 20260830175054 | 26 | 74 | 3.2 | 11.3 | 0.00 | 0.00 | 0.00 | 76 | 1012.9 |
| 20260830174029 | 26 | 71 | 3.2 | 9.7 | 0.00 | 0.00 | 0.00 | 76 | 1012.9 |
| 20260830173105 | 26 | 86 | 3.2 | 14.5 | 0.00 | 0.00 | 0.00 | 75 | 1013.0 |
| 20260830172020 | 26 | 81 | 4.8 | 11.3 | 0.00 | 0.00 | 0.00 | 75 | 1013.0 |
| 20260830171015 | 26 | 91 | 8.0 | 12.9 | 0.00 | 0.00 | 0.00 | 76 | 1012.8 |
| 20260830170030 | 26 | 102 | 6.4 | 16.1 | 0.00 | 0.00 | 0.00 | 74 | 1012.9 |
| 20260830165026 | 27 | 96 | 8.0 | 14.5 | 0.00 | 0.00 | 0.00 | 74 | 1012.9 |
| 20260830164021 | 27 | 101 | 8.0 | 20.9 | 0.00 | 0.00 | 0.00 | 74 | 1013.1 |
| 20260830163017 | 27 | 120 | 8.0 | 16.1 | 0.00 | 0.00 | 0.00 | 74 | 1013.0 |
| 20260830162032 | 27 | 107 | 6.4 | 16.1 | 0.00 | 0.00 | 0.00 | 73 | 1013.0 |
| 20260830161027 | 27 | 93 | 4.8 | 16.1 | 0.00 | 0.00 | 0.00 | 75 | 1013.1 |
| 20260830160023 | 27 | 143 | 11.3 | 17.7 | 0.00 | 0.00 | 0.00 | 74 | 1013.1 |
| 20260830155018 | 27 | 128 | 12.9 | 20.9 | 0.00 | 0.00 | 0.00 | 75 | 1013.3 |
| 20260830154033 | 27 | 117 | 11.3 | 24.1 | 0.00 | 0.00 | 0.00 | 76 | 1013.2 |
| 20260830153029 | 27 | 122 | 12.9 | 27.4 | 0.00 | 0.00 | 0.00 | 76 | 1013.2 |
| 20260830152104 | 26 | 115 | 14.5 | 22.5 | 0.00 | 0.00 | 0.00 | 76 | 1013.5 |
| 20260830151019 | 27 | 125 | 11.3 | 22.5 | 0.00 | 0.00 | 0.00 | 74 | 1013.4 |
| 20260830150035 | 27 | 92 | 14.5 | 24.1 | 0.00 | 0.00 | 0.00 | 74 | 1013.6 |
| 20260830145031 | 27 | 122 | 11.3 | 25.7 | 0.00 | 0.00 | 0.00 | 74 | 1013.7 |
| 20260830144026 | 26 | 122 | 11.3 | 24.1 | 0.00 | 0.00 | 0.00 | 73 | 1013.9 |
| 20260830143020 | 27 | 107 | 14.5 | 25.7 | 0.00 | 0.00 | 0.00 | 71 | 1013.9 |
| 20260830142036 | 27 | 129 | 12.9 | 27.4 | 0.00 | 0.00 | 0.00 | 66 | 1014.0 |
| 20260830141031 | 27 | 107 | 11.3 | 24.1 | 0.00 | 0.00 | 0.00 | 64 | 1013.9 |
| 20260830140027 | 27 | 117 | 11.3 | 22.5 | 0.00 | 0.00 | 0.00 | 63 | 1014.2 |
| 20260830135022 | 27 | 120 | 8.0 | 12.9 | 0.00 | 0.00 | 0.00 | 60 | 1014.2 |
| 20260830134037 | 27 | 112 | 11.3 | 22.5 | 0.00 | 0.00 | 0.00 | 59 | 1014.4 |